Regional Weather Roundup
Issued by NWS

Home | Current Version | Previous Version | Text Only | Print | Product List | Glossary Off
Versions: 1 2 3 4 5 6 7 8 9 10 11 12 13 14 15 16 17 18 19 20 21 22 23 24 25 26 27 28 29 30 31 32 33 34 35 36 37 38 39 40 41 42 43 44 45 46 47 48 49 50

000
ASUS43 KLOT 181806
RWRIL

ILLINOIS REGIONAL WEATHER ROUNDUP
NATIONAL WEATHER SERVICE CHICAGO/ROMEOVILLE IL
1200 PM CST THU DEC 18 2014

NOTE: "FAIR" INDICATES FEW OR NO CLOUDS BELOW 12,000 FEET WITH NO
SIGNIFICANT WEATHER AND/OR OBSTRUCTIONS TO VISIBILITY.

* THESE STATIONS ARE NOT UNDER NWS QUALITY CONTROL. THEY ALSO MAY NOT
  REPORT WEATHER SUCH AS PRECIPITATION OR FOG.

ILZ001-002-007-009-015-016-024-181900-
NORTHWEST ILLINOIS

CITY           SKY/WX    TMP DP  RH WIND       PRES   REMARKS
MOLINE         CLOUDY    27  18  69 CALM      30.28F
6HR MIN TEMP:  20; 6HR MAX TEMP:  27;

STERLING*      CLOUDY    25  16  68 CALM      30.28F
SAVANNA*       PTSUNNY   24  18  80 CALM      30.28F
$$

ILZ003-004-008-010-011-017-018-181900-
NORTH CENTRAL ILLINOIS

CITY           SKY/WX    TMP DP  RH WIND       PRES   REMARKS
ROCKFORD       CLOUDY    25  16  68 VRB6      30.29F WCI  18
6HR MIN TEMP:  18; 6HR MAX TEMP:  25;

FREEPORT*      PTSUNNY   22  17  81 CALM      30.28F
ROCHELLE*      CLOUDY    23  17  79 NW3       30.27F
DE KALB*       CLOUDY    24  17  75 NW3       30.26F
PERU*          CLOUDY    26  20  80 NW3       30.28F
$$

ILZ005-006-012>014-019>023-181900-
NORTHEAST ILLINOIS

CITY           SKY/WX    TMP DP  RH WIND       PRES   REMARKS
CHICAGO-OHARE  CLOUDY    26  17  68 W6        30.25F WCI  19
6HR MIN TEMP:  19; 6HR MAX TEMP:  26;

CHICAGO-MIDWAY PTSUNNY   27  18  69 W6        30.26F WCI  20
6HR MIN TEMP:  25; 6HR MAX TEMP:  27;

AURORA         CLOUDY    25  16  68 W5        30.27F WCI  19
6HR MIN TEMP:  23; 6HR MAX TEMP:  25;

LANSING*       PTSUNNY   25  17  72 CALM      30.27F
JOLIET*        CLOUDY    25  17  73 CALM      30.27F
WAUKEGAN       CLOUDY    26  19  74 W5        30.24F WCI  20
6HR MIN TEMP:  16; 6HR MAX TEMP:  26;

DUPAGE AIRPORT PTSUNNY   26  16  65 W5        30.25F WCI  20
6HR MIN TEMP:  20; 6HR MAX TEMP:  26;

KANKAKEE*      CLOUDY    26  20  76 CALM      30.28F
WHEELING       CLOUDY    25  16  68 W6        30.27F WCI  18
6HR MIN TEMP:  19; 6HR MAX TEMP:  25;

MORRIS*        CLOUDY    25  19  79 W5        30.27F WCI  19
ROMEOVILLE*    CLOUDY    25  18  76 W3        30.27F
NORTHERLY ISL    N/A     27  17  66 S3          N/A
$$

LMZ740>746-181900-
SOUTHERN LAKE MICHIGAN

STATION/POSITION SKY/WX   TEMP    WIND        PRES    VSBY  WAVE
                          AIR SEA DIR/SP/G                  HT/PER
                          (F)     (DEG/KT/KT) (MB)    (MI)  (FT/S)
WAUKEGAN HARBOR            25     280/  7/ 11   N/A
HARRISON CRIB              26     240/  7/  9   N/A
BURNHAM HARBOR             26     200/  7/  8   N/A
CALUMET HARBOR             26     200/  3/  5 1023.6F
$$

ILZ025>027-034>036-040-047-049-050-058-095>099-181900-
WEST-CENTRAL ILLINOIS

CITY           SKY/WX    TMP DP  RH WIND       PRES   REMARKS
QUINCY         CLOUDY    28  23  81 CALM      30.26F
GALESBURG*     CLOUDY    26  20  75 CALM      30.27F
MACOMB*        CLOUDY    26  22  84 CALM      30.30F
JACKSONVILLE*  MIX PCPN  29  24  80 CALM      30.28F
PITTSFIELD*    LGT SNOW  29  26  88 SE3       30.28F
$$

ILZ028>032-037-038-041>044-048-051>054-059>061-181900-
CENTRAL ILLINOIS

CITY           SKY/WX    TMP DP  RH WIND       PRES   REMARKS
PONTIAC        CLOUDY    26  22  84 CALM      30.29F
BLOOMINGTON    CLOUDY    27  22  81 CALM      30.26F
DECATUR        CLOUDY    27  22  81 CALM      30.27F
PEORIA         CLOUDY    28  19  69 CALM      30.28F
6HR MIN TEMP:  19; 6HR MAX TEMP:  29;

LACON*         CLOUDY    24  19  79 CALM      30.28F
LINCOLN*       CLOUDY    29  25  85 CALM      30.29F
SPRINGFIELD    CLOUDY    29  24  82 CALM      30.28F
6HR MIN TEMP:  26; 6HR MAX TEMP:  29; 6HR PCP:  0.01;

TAYLORVILLE    CLOUDY    28  23  80 E3        30.27F
$$

ILZ033-039-045-046-055>057-062-063-181900-
EAST-CENTRAL ILLINOIS

CITY           SKY/WX    TMP DP  RH WIND       PRES   REMARKS
CHAMPAIGN      LGT SNOW  27  22  81 SW3       30.26F
DANVILLE*      CLOUDY    27  20  76 NW3       30.24F
RANTOUL*       LGT SNOW  28  23  80 CALM      30.26F
MATTOON        CLOUDY    28  20  71 N5        30.25F WCI  23
PARIS*         CLOUDY    28  23  79 CALM      30.28F
$$

ILZ079-100>102-181900-
SOUTHWEST ILLINOIS

CITY           SKY/WX    TMP DP  RH WIND       PRES   REMARKS
ALTON          CLOUDY    32  25  74 NE7       30.28F WCI  26
BELLEVILLE     PTSUNNY   33  28  82 NE5       30.26F WCI  28
CAHOKIA*       CLOUDY    34  28  79 CALM      30.27F
SPARTA*        CLOUDY    32  29  90 E3        30.27F
$$

ILZ064>066-069>071-074>076-080>082-084>086-088>090-092>094-181900-
SOUTH-CENTRAL ILLINOIS

CITY           SKY/WX    TMP DP  RH WIND       PRES   REMARKS
CARBONDALE     CLOUDY    32  29  88 E5        30.27F FOG     WCI  27
6HR MIN TEMP:  31; 6HR MAX TEMP:  33; 6HR PCP:  0.03;

CAIRO*         CLOUDY    37  36  96 NE8       30.27F WCI  30
EFFINGHAM*     CLOUDY    31  21  67 CALM      30.29F
MARION         LGT SNOW  34  32  93 E5        30.29F WCI  30
MT. VERNON     CLOUDY    32  25  74 NE3       30.28F
CENTRALIA*     CLOUDY    32  25  76 CALM      30.27F
SALEM*         CLOUDY    32  26  78 CALM      30.28F
METROPOLIS*    CLOUDY    34  34 100 NE3       30.26F
$$

ILZ067-068-072-073-078-083-087-091-181900-
SOUTHEAST ILLINOIS

CITY           SKY/WX    TMP DP  RH WIND       PRES   REMARKS
LAWRENCEVILLE  CLOUDY    30  23  75 NW5       30.29F WCI  25
FLORA*         PTSUNNY   29  24  81 N3        30.29F
FAIRFIELD*     CLOUDY    31  25  79 N5        30.28F WCI  26
HARRISBURG*    CLOUDY    33  30  89 CALM      30.29F
ROBINSON*      CLOUDY    29  24  79 N5        30.30F WCI  24
CARMI*         CLOUDY    33  29  85 CALM      30.28F
$$

ABBREVIATIONS USED IN REMARKS
   TC - TEMPERATURE IN CELSIUS
  WCI - WIND CHILL INDEX
   HX - HEAT INDEX
  VSB - VISIBILITY
$$




USA.gov is the U.S. government's official web portal to all federal, state and local government web resources and services.